Location: Newark
(33.6439°N, 114.9881°W)
Time: 15:05:50
(UTC+00:00)

ISS - Visible Passes

Search period start: 19 June 2019 00:00
Search period end: 29 June 2019 00:00
Orbit: 407 x 418 km, 51.6° (Epoch: 20 June)

Date Brightness Start Highest point End Pass type
(mag) Time Alt. Az. Time Alt. Az. Time Alt. Az.
25 Jun -1.1 11:38:06 10° SSE 11:39:28 12° SE 11:40:49 10° ESE visible
27 Jun -2.8 11:34:00 13° SSW 11:36:41 38° SE 11:39:47 10° ENE visible
28 Jun -1.8 10:46:32 18° SE 10:47:13 19° SE 10:49:40 10° E visible
